DW4362 Weather Reports


Display with metric or nautical units.
time (UTC)temp
F
wind
direction
speed
MPH
gust
MPH
rain 1hr
in
rain 24hr
in
rain mn
in
humidity
%
barometer
mb
20260831170212 92 136 3.0 8.0 0.00 0.03 0.01 64 1017.1
20260831163212 89 11 0.0 0.0 0.00 0.03 0.01 73 1017.3
20260831160212 89 315 0.0 0.0 0.00 0.03 0.01 74 1017.5
20260831150212 86 136 3.0 6.0 0.00 0.03 0.01 77 1017.5
20260831143212 85 176 5.0 6.0 0.00 0.03 0.01 82 1017.3
20260831140212 82 153 0.0 5.0 0.00 0.03 0.01 87 1017.4
20260831123211 74 316 2.0 3.0 0.01 0.03 0.01 95 1017.0
20260831120211 73 328 2.0 2.0 0.01 0.03 0.01 95 1016.6
20260831113211 73 328 0.0 0.0 0.00 0.02 0.00 95 1016.1
20260831103210 73 3 0.0 0.0 0.00 0.02 0.00 95 1015.6
20260831093210 73 255 0.0 0.0 0.00 0.02 0.00 95 1015.2
20260831083209 74 255 0.0 0.0 0.00 0.02 0.00 95 1015.3
20260831080209 74 255 0.0 0.0 0.00 0.02 0.00 95 1015.4
20260831073210 74 256 0.0 0.0 0.00 0.02 0.00 95 1015.4
20260831063209 75 256 0.0 0.0 0.00 0.02 0.00 95 1015.8
20260831060208 75 256 0.0 0.0 0.00 0.02 0.00 95 1015.8
20260831050208 75 256 0.0 0.0 0.00 0.02 0.00 95 1016.0
20260831043208 75 255 0.0 0.0 0.00 0.02 0.02 95 1016.1
20260831040208 76 256 0.0 0.0 0.00 0.02 0.02 95 1016.3
20260831030208 76 256 0.0 0.0 0.00 0.02 0.02 95 1016.3
20260831010207 78 256 0.0 0.0 0.00 0.02 0.02 91 1015.4
20260830233207 81 256 0.0 0.0 0.00 0.02 0.02 87 1015.1
20260830230207 81 257 0.0 0.0 0.00 0.02 0.02 86 1015.1
20260830223207 81 75 0.0 0.0 0.00 0.02 0.02 85 1015.1
20260830213207 82 23 0.0 0.0 0.00 0.02 0.02 82 1015.2
20260830210207 84 317 5.0 5.0 0.00 0.02 0.02 75 1015.3
20260830203207 90 278 0.0 3.0 0.00 0.02 0.02 68 1015.5
20260830200207 90 195 2.0 3.0 0.00 0.02 0.02 69 1015.6
20260830193207 89 212 0.0 2.0 0.00 0.02 0.02 71 1015.8
20260830190206 85 200 0.0 0.0 0.02 0.02 0.02 85 1016.3
20260830180207 88 186 0.0 0.0 0.00 0.00 0.00 74 1017.0
20260830173206 89 264 0.0 0.0 0.00 0.00 0.00 71 1017.2